Погода в Битунге

Индонезия     1°27′01″N   125°11′55″E
темп.,
°C
ветер,
м/с
пор.,
м/с
влажн.,
%
обл.,
%
осадки,
мм/ч
давл.,
гПа
погр.,
м
2 марта, вт
вт223:00+26зсз5680100 0.9 1012255
02:00+26зсз4577100 1.3 1010286
05:00+26зсз4578100 0.2 1010324
08:00+27сз4680100 0.6 1012427
11:00+29ссз576898 0.0 10121107
14:00+29с686994 0.0 10091002
17:00+28с567398 0.1 10101041
20:00+27с567896 0.2 1011752
3 марта, ср
ср323:00+27ссз4579100 0.1 1012662
02:00+27с4580100 0.2 1010679
05:00+27ссв4679100 0.1 1010757
08:00+28ссв6779100 0.6 1012896
11:00+28ссв6672100 0.1 1011977
14:00+28ссв666991 0.1 10091029
17:00+28с67710 0.0 10091012
20:00+27с567614 0.0 1011833
4 марта, чт
чт423:00+27с567748 0.0 1011844
02:00+27с458074 0.1 1010696
05:00+27с458251 1.5 1010563
08:00+27с457771 6.0 1012614
11:00+28с347474 1.3 1012511
14:00+28ссз557159 4.1 1009762
17:00+27ссз567846 2.6 1010596
20:00+26ссз668473 7.1 1012513
5 марта, пт
пт523:00+26ссз5684100 4.0 1011425
02:00+26сз3480100 4.0 1009326
05:00+26сз448085 2.7 1010289
08:00+27сз347591 4.4 1012352
11:00+28с4574100 1.9 1012570
14:00+26ссз568099 6.3 1009594
17:00+26ссз6784100 2.0 1010511
20:00+25ссв71080100 7.9 1012759
6 марта, сб
сб623:00+25св3681100 1.6 1012565
02:00+24вюв1287100 2.4 1010287
05:00+25з1184100 0.0 1010156
08:00+26ссз238098 0.0 1012475
11:00+28с567251 0.0 1011788
14:00+29с666935 0.0 1009972
17:00+28ссз667716 0.0 1010785
20:00+27ссз568312 0.2 1012582